TimeEDT,TemperatureF,Dew PointF,Humidity,Sea Level PressureIn,VisibilityMPH,Wind Direction,Wind SpeedMPH,Gust SpeedMPH,PrecipitationIn,Events,Conditions,WindDirDegrees,DateUTC
12:51 AM,63.0,48.9,60,30.00,-9999.0,WSW,8.1,-,N/A,,Unknown,250,2013-07-12 04:51:00
1:51 AM,62.1,51.1,67,29.99,-9999.0,WSW,9.2,-,N/A,,Unknown,250,2013-07-12 05:51:00
2:51 AM,64.9,53.1,65,30.00,-9999.0,WSW,8.1,-,N/A,,Unknown,250,2013-07-12 06:51:00
3:51 AM,64.9,54.0,68,30.01,-9999.0,Variable,3.5,-,N/A,,Unknown,0,2013-07-12 07:51:00
4:51 AM,64.0,54.0,70,30.01,-9999.0,WSW,6.9,-,N/A,,Unknown,240,2013-07-12 08:51:00
5:51 AM,64.9,54.0,68,30.01,-9999.0,WSW,6.9,-,N/A,,Unknown,240,2013-07-12 09:51:00
6:51 AM,64.9,55.0,70,30.02,-9999.0,WSW,8.1,18.4,N/A,,Unknown,240,2013-07-12 10:51:00
7:51 AM,66.9,55.9,68,30.01,-9999.0,WSW,11.5,19.6,N/A,,Unknown,240,2013-07-12 11:51:00
8:51 AM,68.0,57.0,68,30.04,-9999.0,WSW,11.5,19.6,N/A,,Unknown,240,2013-07-12 12:51:00
9:51 AM,69.1,59.0,70,30.04,-9999.0,WSW,8.1,-,N/A,,Unknown,240,2013-07-12 13:51:00
10:51 AM,73.9,60.1,62,30.02,-9999.0,SW,8.1,-,N/A,,Unknown,230,2013-07-12 14:51:00
11:51 AM,75.0,62.1,64,30.01,-9999.0,SW,9.2,-,N/A,,Unknown,230,2013-07-12 15:51:00
12:51 PM,75.9,61.0,60,30.01,-9999.0,Variable,6.9,-,N/A,,Unknown,0,2013-07-12 16:51:00
1:51 PM,77.0,61.0,58,30.01,-9999.0,SW,9.2,17.3,N/A,,Unknown,230,2013-07-12 17:51:00
2:51 PM,78.1,60.1,54,30.00,-9999.0,Variable,5.8,-,N/A,,Unknown,0,2013-07-12 18:51:00
3:51 PM,80.1,61.0,52,29.98,-9999.0,Variable,5.8,-,N/A,,Unknown,0,2013-07-12 19:51:00
4:51 PM,81.0,59.0,47,29.96,-9999.0,WSW,5.8,-,N/A,,Unknown,240,2013-07-12 20:51:00
5:51 PM,81.0,59.0,47,29.94,-9999.0,WSW,6.9,-,N/A,,Unknown,240,2013-07-12 21:51:00
6:51 PM,77.0,59.0,54,29.95,-9999.0,SW,11.5,20.7,N/A,,Unknown,220,2013-07-12 22:51:00
7:51 PM,75.9,60.1,58,29.94,-9999.0,SW,10.4,17.3,N/A,,Unknown,230,2013-07-12 23:51:00
8:51 PM,75.9,60.1,58,29.94,-9999.0,SW,11.5,24.2,N/A,,Unknown,230,2013-07-13 00:51:00
9:51 PM,73.9,60.1,62,29.93,-9999.0,SW,8.1,16.1,N/A,,Unknown,230,2013-07-13 01:51:00
10:51 PM,72.0,59.0,64,29.94,-9999.0,SW,12.7,19.6,N/A,,Unknown,230,2013-07-13 02:51:00
11:51 PM,70.0,59.0,68,29.94,-9999.0,SW,10.4,18.4,N/A,,Unknown,230,2013-07-13 03:51:00